Location: Colle Santa Colomba
(42.0333°N, 12.5667°E)
Time: 22:10:05
(UTC+00:00)

Okean-O - Pass Details

Date: 25 October 2021
Orbit: 639 x 640 km, 98.2° (Epoch: 04 December)

Event Time Altitude Azimuth Distance (km) Brightness Sun altitude
Exits shadow 18:26:32 57° 352° (N) 754 2.9 -25.4°
Drops below altitude 10° 18:30:07 10° 348° (NNW) 2,041 5.4 -26.1°
Sets 18:32:20 0° 348° (NNW) 2,954 6.3 -26.5°
